Weather History for KABQ - May, 2013

Change the Weather History Date:

Saturday, May 25, 2013

  Actual Average Record
Temperature  
Mean Temperature 75 °F 68 °F  
Max Temperature 92 °F 82 °F 92 °F (1984)
Min Temperature 57 °F 55 °F 33 °F (1980)
Degree Days  
Heating Degree Days 0 1  
Month to date heating degree days 63 66  
Since 1 July heating degree days 3894 4170  
Cooling Degree Days 10 5  
Month to date cooling degree days 65 60  
Year to date cooling degree days 73 67  
Growing Degree Days 24 (Base 50)    
Moisture  
Dew Point 18 °F    
Average Humidity 14    
Maximum Humidity 22    
Minimum Humidity 5    
Precipitation  
Precipitation 0.00 in 0.02 in 0.77 in (1994)
Month to date precipitation 0.08 0.40  
Year to date precipitation 0.68 2.44  
Snow  
Snow 0.00 in - - ()
Month to date snowfall 0.0  
Since 1 July snowfall 3.5  
Snow Depth 0.00 in    
Sea Level Pressure  
Sea Level Pressure 29.81 in    
Wind  
Wind Speed 8 mph (South)    
Max Wind Speed 22 mph    
Max Gust Speed 32 mph    
Visibility 10 miles    
Events      
T = Trace of Precipitation, MM = Missing Value Source: NWS Daily Summary

Daily Weather History Graph

Daily Weather History Graph

Search for Another Location

Airport or City:

Trip Planner

Search our weather history database for the weather conditions in past years. The results will help you decide how hot, cold, wet, or windy it might be!

Date:

Astronomy

May. 25, 2013 Rise Set
Actual Time 5:56 AM MDT 8:10 PM MDT
Civil Twilight 5:27 AM MDT 8:39 PM MDT
Nautical Twilight 4:52 AM MDT 9:15 PM MDT
Astronomical Twilight 4:13 AM MDT 9:53 PM MDT
Moon 9:02 PM MDT (5/25) 6:25 AM MDT (5/25)
Length of Visible Light 15h 12m
Length of Day
14h 14m
Waxing Gibbous, 99% of the Moon is Illuminated
May 25
Waxing Gibbous
May 31
Last Quarter
Jun 8
New
Jun 16
First Quarter
Jun 23
Full

Hourly Weather History & Observations

Time (MDT) Temp. Dew Point Humidity Pressure Visibility Wind Dir Wind Speed Gust Speed Precip Events Conditions
12:52 AM 64.9 °F 19.0 °F 17% 29.83 in 10.0 mi SE 4.6 mph - N/A   Clear
1:52 AM 63.0 °F 17.1 °F 17% 29.84 in 10.0 mi SE 9.2 mph - N/A   Clear
2:52 AM 63.0 °F 14.0 °F 15% 29.85 in 10.0 mi SSE 4.6 mph - N/A   Clear
3:52 AM 64.0 °F 15.1 °F 15% 29.85 in 10.0 mi NNE 4.6 mph - N/A   Clear
4:52 AM 61.0 °F 15.1 °F 17% 29.86 in 10.0 mi SE 5.8 mph - N/A   Clear
5:52 AM 57.9 °F 12.9 °F 17% 29.89 in 10.0 mi SSE 6.9 mph - N/A   Partly Cloudy
6:52 AM 60.1 °F 12.9 °F 16% 29.92 in 10.0 mi Calm Calm - N/A   Partly Cloudy
7:52 AM 64.9 °F 14.0 °F 14% 29.91 in 10.0 mi East 3.5 mph - N/A   Partly Cloudy
8:52 AM 70.0 °F 15.1 °F 12% 29.91 in 10.0 mi Calm Calm - N/A   Partly Cloudy
9:52 AM 73.0 °F 26.1 °F 17% 29.92 in 10.0 mi Calm Calm - N/A   Scattered Clouds
10:52 AM 77.0 °F 36.0 °F 23% 29.88 in 10.0 mi SSW 9.2 mph 16.1 mph N/A   Scattered Clouds
11:52 AM 80.1 °F 35.1 °F 20% 29.87 in 10.0 mi South 9.2 mph 18.4 mph N/A   Scattered Clouds
12:52 PM 82.9 °F 28.0 °F 14% 29.86 in 10.0 mi SSW 9.2 mph 17.3 mph N/A   Scattered Clouds
1:52 PM 84.9 °F 28.0 °F 13% 29.83 in 10.0 mi South 8.1 mph 24.2 mph N/A   Scattered Clouds
2:52 PM 87.1 °F 25.0 °F 10% 29.79 in 10.0 mi SW 13.8 mph 18.4 mph N/A   Scattered Clouds
3:52 PM 89.1 °F 21.9 °F 9% 29.74 in 10.0 mi South 18.4 mph 23.0 mph N/A   Scattered Clouds
4:52 PM 89.1 °F 18.0 °F 7% 29.72 in 10.0 mi SSW 10.4 mph 21.9 mph N/A   Scattered Clouds
5:52 PM 91.0 °F 10.9 °F 5% 29.69 in 10.0 mi SSW 12.7 mph 21.9 mph N/A   Mostly Cloudy
6:52 PM 90.0 °F 12.0 °F 6% 29.68 in 10.0 mi West 11.5 mph 20.7 mph N/A   Scattered Clouds
7:52 PM 87.1 °F 10.9 °F 6% 29.69 in 10.0 mi West 13.8 mph - N/A   Scattered Clouds
8:52 PM 82.0 °F 10.9 °F 7% 29.70 in 10.0 mi WSW 8.1 mph - N/A   Scattered Clouds
9:52 PM 79.0 °F 12.0 °F 8% 29.73 in 10.0 mi SW 9.2 mph - N/A   Clear
10:52 PM 75.9 °F 15.1 °F 10% 29.77 in 10.0 mi NNE 6.9 mph - N/A   Clear
11:52 PM 69.1 °F 12.9 °F 11% 29.81 in 10.0 mi ESE 6.9 mph - N/A   Scattered Clouds